Regional Weather Roundup
Issued by NWS Grand Forks, ND

Home | Current Version | Previous Version | Text Only | Print | Product List | Glossary Off
Versions: 1 2 3 4 5 6 7 8 9 10 11 12 13 14 15 16 17 18 19 20 21 22 23 24 25 26 27 28 29 30 31 32 33 34 35 36 37 38 39 40 41 42 43 44 45 46 47 48 49 50

890
ASUS43 KFGF 251031
RWRFGF
PRAIRIE TO PINES  WEATHER ROUNDUP
NATIONAL WEATHER SERVICE EASTERN NORTH DAKOTA/GRAND FORKS ND
500 AM CDT SAT MAR 25 2017

 **SATELLITE DATA USED TO AUGMENT SKY COVER AT AUTOMATED STATIONS**
 *****  WEATHER ACROSS EASTERN NORTH DAKOTA  *****

CITY           SKY/WX    TMP DP  RH WIND       PRES   REMARKS
GRAND FORKS    FAIR      27  26  96 E5        30.17S FOG     WCI  22
GRAND FRKS AFB FOG       24  23  99 CALM      30.17S VSB 1/2
DEVILS LAKE    FAIR      27  25  92 SE7       30.12F WCI  19
FARGO          FAIR      29  28  96 SE5       30.17F WCI  24
WAHPETON ARPT  FAIR      30  27  86 E3        30.17F
$$

 ***** WEATHER ACROSS CENTRAL AND WESTERN NORTH DAKOTA  *****

CITY           SKY/WX    TMP DP  RH WIND       PRES   REMARKS
BISMARCK       CLOUDY    31  30  96 SE12      30.07S FOG     WCI  22
MINOT          CLOUDY    32  30  92 SE13      29.99F WCI  22
JAMESTOWN      FAIR      26  24  92 CALM      30.12F FOG
MINOT AFB      CLOUDY    32  32 100 SE17      29.98F WCI  21
GARRISON         N/A     30  29  96 SE16      30.00F WCI  19
WILLISTON      FAIR      43  32  65 VRB7G17   29.84F
DICKINSON      FAIR      34  30  85 S23G32    29.89F WCI  22
HETTINGER      FAIR      34  30  85 SE12      29.95F
$$

 *****  OTHER AIRPORT OBSERVATIONS IN OUR AREA  *****

CITY           SKY/WX    TMP DP  RH WIND       PRES   REMARKS
WALHALLA       NOT AVBL
GRAFTON AIRPOR FAIR      27  27 100 E5        30.19S WCI  21
VALLEY CITY AR FAIR      25  25 100 E6        30.14F WCI  18
CANDO          NOT AVBL
CAVALIER APRT    N/A     25  25 100 CALM      30.16F
GWINNER        NOT AVBL
SHEYENNE NWR     N/A     19  18  94 E3        29.95S
ROLLA          CLOUDY    27  27 100 S15G23    30.07F FOG     WCI  15
 ***** THE ABOVE OBSERVATIONS ARE NON NWS ARE NOT QUALITY
       CONTROLLED AND MAY MIS-REPORT RAIN FOR SNOW...
$$

  *****  WEATHER ACROSS NORTHERN MINNESOTA  *****

CITY           SKY/WX    TMP DP  RH WIND       PRES   REMARKS
FLAG ISLAND    FAIR      28  25  86 SE8       30.21F WCI  20
WARROAD        FAIR      28  25  86 SE5       30.22S WCI  23
ROSEAU         FAIR      30  25  80 SE6       30.20F WCI  24
HALLOCK        FAIR      30  28  93 SE6       30.17F WCI  24
THF RVR FALLS  FAIR     N/A N/A N/A SE7       30.19F
BAUDETTE       FAIR      27  24  89 E8        30.21F WCI  19
WASKISH        MOCLDY    28  27  93 CALM      30.21F
CROOKSTON      FAIR      30  28  93 SE6       30.20R WCI  24
STEPHEN NDAWN    N/A     30  28  93 SE6         N/A  WCI  24
GREENBUSH NDAW   N/A     28  27  93 SE3         N/A
$$
  *****  WEATHER ACROSS CENTRAL AND WEST MINNESOTA  *****

CITY           SKY/WX    TMP DP  RH WIND       PRES   REMARKS
FOSSTON        FAIR      25  25 100 E5        30.19S WCI  19
BEMIDJI        CLOUDY    33  30  88 SE6       30.19S
PARK RAPIDS    CLOUDY    36  27  69 E7        30.18S
ELBOW LAKE     FAIR      31  29  94 SE10      30.17S WCI  22
WADENA         CLOUDY    34  28  80 E9        30.18R
DETROIT LAKES  CLOUDY    34  32  93 SE9       30.18S
MOORHEAD       FAIR      28  27  93 SE3       30.18F
FERGUS FALLS   FAIR      32  28  86 CALM      30.21F
MORRIS MN      CLOUDY    34  30  86 E10       30.15S
STAPLES        CLOUDY    34  28  80 E8        30.19R
$$
  *****  WEATHER ELSEWHERE ACROSS MINNESOTA  *****

CITY           SKY/WX    TMP DP  RH WIND       PRES   REMARKS
DULUTH         CLOUDY    32  29  88 E10       30.22F WCI  24
INTRNTL FALLS  CLOUDY    33  28  81 E6        30.25S
ELY            CLOUDY    30  27  86 SE6       30.26S WCI  24
CLOQUET        CLOUDY    32  28  86 E12       30.22S WCI  23
WHEATON        CLOUDY    27  27 100 CALM      30.19S
BRAINERD       MOCLDY    33  29  85 E5        30.20F
HIBBING        CLOUDY    31  28  89 E6        30.24S
ALEXANDRIA     CLOUDY    32  29  88 E15       30.17F WCI  22
SAINT CLOUD    CLOUDY    34  30  85 NE7       30.18S
MINNEAPOLIS    CLOUDY    37  30  75 NE8       30.16S
$$

  *****  WEATHER ACROSS SOUTH DAKOTA  *****

CITY           SKY/WX    TMP DP  RH WIND       PRES   REMARKS
SIOUX FALLS    CLOUDY    35  34  96 NE14      30.10S FOG
BROOKINGS      CLOUDY    32  30  92 NE8       30.11S WCI  25
WATERTOWN      CLOUDY    32  30  92 E8        30.11F WCI  25
HURON          CLOUDY    36  33  89 E6        30.13S
SISSETON         N/A     28  28 100 N3        30.15F
ABERDEEN       CLOUDY    29  26  89 CALM      30.14S
MITCHELL       CLOUDY    36  32  85 NE12      30.11F
PIERRE         MOCLDY    31  29  92 SE9       30.07S FOG     WCI  23
MOBRIDGE       MOCLDY    28  23  81 E8        30.04F WCI  20
RAPID CITY     FAIR      36  28  73 S14       29.97F
$$

  *****  SOME WEATHER IN NEARBY STATES *****

CITY           SKY/WX    TMP DP  RH WIND       PRES   REMARKS
GLASGOW MT     FAIR      47  32  56 NW10      29.76R
GREAT FALLS MT FAIR      43  30  60 SW14      29.89R
CHEYENNE WY    FAIR      28  24  85 SW7       30.05F WCI  21
SCOTTSBLUFF NE FAIR      31  25  78 E8        30.03F WCI  23
OMAHA NE       LGT RAIN  41  37  86 N17       29.93S FOG
DES MOINES IA  LGT RAIN  43  42  97 NE14      29.89S VSB 3/4
DAVENPORT IA   LGT RAIN  41  39  93 E18       29.95F FOG
CHICAGO IL     DRIZZLE   41  36  82 NE14      30.03F
EAU CLAIRE WI  CLOUDY    37  32  82 NE13      30.16R
LA CROSSE WI   CLOUDY    39  35  86 NE16G23   30.12S
$$

  *****  SOME NATIONAL WEATHER *****

CITY           SKY/WX    TMP DP  RH WIND       PRES   REMARKS
LA GUARDIA NY  CLOUDY    54  37  52 S7        30.08R
RALEIGH NC     MOCLDY    53  49  86 SW7       30.30R
ATLANTA GA     MOCLDY    58  51  78 SE6       30.26R
NEW ORLEANS LA FAIR      71  67  87 SE13      30.06F
OKLAHOMA CITY  CLOUDY    48  44  86 NW23G33   29.90R
ALBUQUERQUE NM FAIR      44  18  35 SE3       30.16F
SALT LAKE CITY MOCLDY    51  36  56 W7        29.99F
LOS ANGELES CA MOCLDY    57  51  80 SE3       30.14R
BOISE ID       FAIR      40  37  89 E5        30.08S
SEATTLE WA     CLOUDY    45  39  79 S13       30.05S
$$

*** WEATHER ACROSS MANITOBA...SASKATCHEWAN AND ONTARIO ***
                ***ONTARIO***

CITY           SKY/WX    TMP DP  RH WIND       PRES   REMARKS
GERALDTON      CLEAR      3  -6  66 NE3       30.43R
THUNDER BAY    CLEAR     25  14  63 E12       30.37S WCI  14
SIOUX LOOKOUT  PTCLDY    21   7  53 SE6       30.30R WCI  14
TORONTO        LGT RAIN  37  36  93 E9        30.17R
BIG TROUT LK   CLEAR     -9 -13  84 SE2       30.41R
PICKLE LAKE    NOT AVBL
DRYDEN         CLOUDY    23  19  86 NE6       30.27S WCI  16
KENORA         PTCLDY    28  21  74 SE8       30.23S WCI  20
$$
                *** MANITOBA***

CITY           SKY/WX    TMP DP  RH WIND       PRES   REMARKS
BRANDON        CLOUDY    28  25  86 SE17      30.07F WCI  16
DAUPHIN        PTCLDY    28  25  86 SE6       30.04F WCI  22
ISLAND LAKE    NOT AVBL
PILOT MOUND      N/A     25  23  93 SE13        N/A  WCI  13
THE PAS        CLOUDY    21  12  68 SE13G18   30.02F WCI   9
THOMPSON       MOCLDY     9  -6  52 E3        30.21F
WINNIPEG       PTCLDY    28  25  86 E7        30.17F WCI  21
LYNN LAKE      MOCLDY    12   5  73 SE7       30.09F WCI   2
CHURCHILL      CLEAR    -15 -20  76 S9        30.37S WCI -33
GILLAM         CLEAR      0  -9  65 SE6       30.33F WCI -12
$$
                ***SASKATCHEWAN***

CITY           SKY/WX    TMP DP  RH WIND       PRES   REMARKS
ESTEVAN        MOCLDY    34  32  93 SE16G23   29.85F WCI  23
KINDERSLEY     PTCLDY    36  30  80 S8        29.58F
LLOYDMINSTER   LGT RAIN  32  32 100 E8        29.61F FOG     WCI  25
PRINCE ALBERT  FRZ RAIN  30  28  93 E16G22    29.75F WCI  19
REGINA         LGT RAIN  36  32  87 SE28G33   29.74F
YORKTON        CLOUDY    30  28  93 S15G23    29.90F WCI  19
N. BATTLEFORD  LGT RAIN  34 N/A N/A E16       29.64F WCI  23
LA RONGE       LGT SNOW  21  18  86 NE12      29.87F WCI   9
SASKATOON      LGT RAIN  36  34  93 SE9       29.68S
SWIFT CURRENT  PTCLDY    45  32  61 W17       29.65R
$$
NOTE: THESE ARE AUTOMATED STATIONS WITH LIMITED QUALITY CONTROL
      "FAIR" INDICATES FEW OR NO CLOUDS BELOW 12,000 FEET WITH NO
      SIGNIFICANT WEATHER AND/OR OBSTRUCTIONS TO VISIBILITY.
      SKY/WX - SKY CONDITION AND SIGNIFICANT WEATHER.
      TMP - AIR TEMPERATURE.    DP   - DEWPOINT TEMPERATURE.
      RH  - RELATIVE HUMIDITY.  PRES - PRESSURE.
      HX  - HEAT INDEX.         WCI  - WIND CHILL INDEX.
$




USA.gov is the U.S. government's official web portal to all federal, state and local government web resources and services.